Time,TemperatureF,DewpointF,PressureIn,WindDirection,WindDirectionDegrees,WindSpeedMPH,WindSpeedGustMPH,Humidity,HourlyPrecipIn,Conditions,Clouds,dailyrainin,SoftwareType,DateUTC
2013-05-20 00:01:00,67.6,60.1,30.04,SSE,158,2.7,4.6,77,0.00,BKN,,0.00,WeatherDisplay:10.37,2013-05-20 04:01:00,
2013-05-20 00:02:00,67.6,60.1,30.04,SSE,158,2.6,4.6,77,0.00,BKN,,0.00,WeatherDisplay:10.37,2013-05-20 04:02:00,
2013-05-20 00:04:00,67.6,60.1,30.04,SSE,165,1.0,5.0,77,0.00,BKN,BKN,0.00,WeatherDisplay:10.37,2013-05-20 04:04:00,
2013-05-20 00:08:00,67.5,60.0,30.04,SSE,158,3.4,5.8,77,0.00,BKN,,0.00,WeatherDisplay:10.37,2013-05-20 04:08:00,
2013-05-20 00:09:00,67.5,60.0,30.04,SSE,158,0.1,4.6,77,0.00,BKN,,0.00,WeatherDisplay:10.37,2013-05-20 04:09:00,
2013-05-20 00:14:00,67.5,60.4,30.04,SSE,158,2.9,4.6,78,0.00,BKN,,0.00,WeatherDisplay:10.37,2013-05-20 04:14:00,
2013-05-20 00:19:00,67.5,60.4,30.04,SSE,158,0.0,0.0,78,0.00,BKN,,0.00,WeatherDisplay:10.37,2013-05-20 04:19:00,
2013-05-20 00:24:00,67.3,60.6,30.04,SSE,158,2.8,3.5,79,0.00,BKN,,0.00,WeatherDisplay:10.37,2013-05-20 04:24:00,
2013-05-20 00:29:00,67.3,60.6,30.03,SSE,158,0.0,0.0,79,0.00,BKN,,0.00,WeatherDisplay:10.37,2013-05-20 04:29:00,
2013-05-20 00:34:00,67.3,60.6,30.03,SSE,158,0.0,0.0,79,0.00,BKN,,0.00,WeatherDisplay:10.37,2013-05-20 04:34:00,
2013-05-20 00:39:00,67.3,60.6,30.03,SSE,158,0.0,0.0,79,0.00,BKN,,0.00,WeatherDisplay:10.37,2013-05-20 04:39:00,
2013-05-20 00:44:00,67.3,60.6,30.03,SSE,158,1.9,4.6,79,0.00,BKN,,0.00,WeatherDisplay:10.37,2013-05-20 04:44:00,
2013-05-20 00:49:00,67.3,60.6,30.03,SSE,158,2.9,3.6,79,0.00,BKN,,0.00,WeatherDisplay:10.37,2013-05-20 04:49:00,
2013-05-20 00:54:00,67.3,60.2,30.03,SSE,158,1.7,2.7,78,0.00,BKN,,0.00,WeatherDisplay:10.37,2013-05-20 04:54:00,
2013-05-20 00:59:00,67.3,60.2,30.03,SSE,158,2.7,2.7,78,0.00,BKN,,0.00,WeatherDisplay:10.37,2013-05-20 04:59:00,
2013-05-20 01:04:00,67.3,60.2,30.02,South,180,4.6,6.1,78,0.00,BKN,,0.00,WeatherDisplay:10.37,2013-05-20 05:04:00,
2013-05-20 01:09:00,67.3,60.2,30.02,SSE,158,5.8,7.0,78,0.00,BKN,,0.00,WeatherDisplay:10.37,2013-05-20 05:09:00,
2013-05-20 01:14:00,67.3,60.2,30.02,South,180,2.6,3.6,78,0.00,BKN,,0.00,WeatherDisplay:10.37,2013-05-20 05:14:00,
2013-05-20 01:19:00,67.1,60.0,30.02,SSE,158,2.3,5.8,78,0.00,BKN,,0.00,WeatherDisplay:10.37,2013-05-20 05:19:00,
2013-05-20 01:24:00,66.9,60.2,30.02,South,180,2.7,4.6,79,0.00,BKN,,0.00,WeatherDisplay:10.37,2013-05-20 05:24:00,
2013-05-20 01:29:00,66.9,60.2,30.01,SSW,202,2.7,3.5,79,0.00,BKN,,0.00,WeatherDisplay:10.37,2013-05-20 05:29:00,
2013-05-20 01:34:00,66.7,60.3,30.01,SW,225,4.3,6.1,80,0.00,BKN,,0.00,WeatherDisplay:10.37,2013-05-20 05:34:00,
2013-05-20 01:39:00,66.6,60.2,30.01,ESE,112,0.1,4.6,80,0.00,BKN,,0.00,WeatherDisplay:10.37,2013-05-20 05:39:00,
2013-05-20 01:44:00,66.6,60.2,30.01,ESE,112,0.0,0.0,80,0.00,BKN,,0.00,WeatherDisplay:10.37,2013-05-20 05:44:00,
2013-05-20 01:49:00,66.0,60.0,30.01,SSE,158,0.0,3.5,81,0.00,BKN,,0.00,WeatherDisplay:10.37,2013-05-20 05:49:00,
2013-05-20 01:54:00,65.8,59.8,30.01,SSE,158,0.0,0.0,81,0.00,BKN,,0.00,WeatherDisplay:10.37,2013-05-20 05:54:00,
2013-05-20 01:59:00,65.7,59.7,30.01,SW,225,0.0,5.8,81,0.00,BKN,,0.00,WeatherDisplay:10.37,2013-05-20 05:59:00,
2013-05-20 02:04:00,65.7,60.1,30.00,SSW,202,1.0,2.7,82,0.00,BKN,,0.00,WeatherDisplay:10.37,2013-05-20 06:04:00,
2013-05-20 02:09:00,65.3,59.7,30.00,SSW,202,0.0,0.0,82,0.00,BKN,,0.00,WeatherDisplay:10.37,2013-05-20 06:09:00,
2013-05-20 02:14:00,64.8,59.9,30.00,SSW,202,0.0,0.0,84,0.00,BKN,,0.00,WeatherDisplay:10.37,2013-05-20 06:14:00,
2013-05-20 02:19:00,64.0,59.4,30.00,SSW,202,0.0,0.0,85,0.00,BKN,,0.00,WeatherDisplay:10.37,2013-05-20 06:19:00,
2013-05-20 02:24:00,63.7,59.4,30.00,SSW,202,1.8,2.7,86,0.00,BKN,,0.00,WeatherDisplay:10.37,2013-05-20 06:24:00,
2013-05-20 02:29:00,63.5,59.6,30.00,SSW,202,0.0,0.0,87,0.00,BKN,,0.00,WeatherDisplay:10.37,2013-05-20 06:29:00,
2013-05-20 02:34:00,63.3,59.4,30.00,SSW,202,0.0,0.0,87,0.00,BKN,,0.00,WeatherDisplay:10.37,2013-05-20 06:34:00,
2013-05-20 02:39:00,63.0,59.4,30.00,SSW,202,0.0,2.3,88,0.00,BKN,,0.00,WeatherDisplay:10.37,2013-05-20 06:39:00,
2013-05-20 02:44:00,62.6,59.3,30.00,SSW,202,0.0,0.0,89,0.00,BKN,,0.00,WeatherDisplay:10.37,2013-05-20 06:44:00,
2013-05-20 02:49:00,62.2,59.2,30.00,SSW,202,0.0,0.0,90,0.00,BKN,,0.00,WeatherDisplay:10.37,2013-05-20 06:49:00,
2013-05-20 02:50:00,59.1,59.1,29.91,NW,315,0.0,4.0,100,0.00,BKN,BKN,0.00,WeatherDisplay:10.37,2013-05-20 06:50:00,
2013-05-20 02:54:00,61.9,59.2,30.00,SSW,202,0.0,0.0,91,0.00,BKN,,0.00,WeatherDisplay:10.37,2013-05-20 06:54:00,
2013-05-20 02:55:00,59.1,59.1,29.91,NW,315,0.0,0.0,100,0.00,BKN,BKN,0.00,WeatherDisplay:10.37,2013-05-20 06:55:00,
2013-05-20 02:59:00,61.7,59.0,30.00,SSW,202,0.0,0.0,91,0.00,BKN,,0.00,WeatherDisplay:10.37,2013-05-20 06:59:00,
2013-05-20 03:00:00,60.1,60.1,29.91,NW,315,0.0,0.0,100,0.00,BKN,BKN,0.00,WeatherDisplay:10.37,2013-05-20 07:00:00,
2013-05-20 03:04:00,61.7,59.0,29.99,SSW,202,0.0,0.0,91,0.00,BKN,,0.00,WeatherDisplay:10.37,2013-05-20 07:04:00,
2013-05-20 03:05:00,60.1,60.1,29.91,NW,315,0.0,0.0,100,0.00,BKN,BKN,0.00,WeatherDisplay:10.37,2013-05-20 07:05:00,
2013-05-20 03:09:00,61.5,58.8,29.99,SSW,202,0.0,0.0,91,0.00,BKN,,0.00,WeatherDisplay:10.37,2013-05-20 07:09:00,
2013-05-20 03:10:00,60.1,60.1,29.91,NW,315,0.0,0.0,100,0.00,BKN,BKN,0.00,WeatherDisplay:10.37,2013-05-20 07:10:00,
2013-05-20 03:14:00,61.3,58.7,29.99,SSW,202,0.0,0.0,91,0.00,BKN,,0.00,WeatherDisplay:10.37,2013-05-20 07:14:00,
2013-05-20 03:15:00,62.1,60.9,29.91,NW,315,0.0,0.0,96,0.00,BKN,BKN,0.00,WeatherDisplay:10.37,2013-05-20 07:15:00,
2013-05-20 03:19:00,60.8,58.8,29.99,SW,225,0.3,1.9,93,0.00,BKN,,0.00,WeatherDisplay:10.37,2013-05-20 07:19:00,
2013-05-20 03:20:00,62.1,60.9,29.91,NW,315,0.0,0.0,96,0.00,BKN,BKN,0.00,WeatherDisplay:10.37,2013-05-20 07:20:00,
2013-05-20 03:24:00,60.4,59.0,29.99,NW,315,3.6,3.6,95,0.00,BKN,,0.00,WeatherDisplay:10.37,2013-05-20 07:24:00,
2013-05-20 03:25:00,63.1,60.1,29.91,NW,315,0.0,0.0,90,0.00,BKN,BKN,0.00,WeatherDisplay:10.37,2013-05-20 07:25:00,
2013-05-20 03:29:00,60.4,59.0,29.99,NW,315,0.0,0.0,95,0.00,BKN,,0.00,WeatherDisplay:10.37,2013-05-20 07:29:00,
2013-05-20 03:30:00,63.1,60.1,29.91,NW,315,0.0,0.0,90,0.00,BKN,BKN,0.00,WeatherDisplay:10.37,2013-05-20 07:30:00,
2013-05-20 03:35:00,60.4,59.0,29.99,NW,315,0.0,0.0,95,0.00,BKN,BKN,0.00,WeatherDisplay:10.37,2013-05-20 07:35:00,
2013-05-20 03:40:00,60.3,58.9,30.00,NW,315,0.0,0.0,95,0.00,BKN,,0.00,WeatherDisplay:10.37,2013-05-20 07:40:00,
2013-05-20 03:45:00,60.1,58.7,30.00,NW,315,0.0,0.0,95,0.00,BKN,,0.00,WeatherDisplay:10.37,2013-05-20 07:45:00,
2013-05-20 03:50:00,59.9,58.8,30.00,NW,315,0.0,0.0,96,0.00,BKN,,0.00,WeatherDisplay:10.37,2013-05-20 07:50:00,
2013-05-20 03:55:00,59.7,58.6,30.00,NW,315,0.0,0.0,96,0.00,BKN,,0.00,WeatherDisplay:10.37,2013-05-20 07:55:00,
2013-05-20 04:00:00,59.5,58.4,30.00,NW,315,0.0,0.0,96,0.00,BKN,,0.00,WeatherDisplay:10.37,2013-05-20 08:00:00,
2013-05-20 04:05:00,59.5,58.4,30.01,NW,315,0.0,0.0,96,0.00,BKN,,0.00,WeatherDisplay:10.37,2013-05-20 08:05:00,
2013-05-20 04:10:00,59.4,58.5,30.01,NW,315,0.0,0.0,97,0.00,BKN,,0.00,WeatherDisplay:10.37,2013-05-20 08:10:00,
2013-05-20 04:15:00,59.0,58.2,30.01,NW,315,0.0,0.0,97,0.00,BKN,,0.00,WeatherDisplay:10.37,2013-05-20 08:15:00,
2013-05-20 04:20:00,59.0,58.2,30.01,NW,315,0.0,0.0,97,0.00,BKN,,0.00,WeatherDisplay:10.37,2013-05-20 08:20:00,
2013-05-20 04:25:00,58.8,58.0,30.01,NW,315,0.0,0.0,97,0.00,BKN,,0.00,WeatherDisplay:10.37,2013-05-20 08:25:00,
2013-05-20 04:30:00,58.8,58.0,30.01,NW,315,0.0,0.0,97,0.00,BKN,,0.00,WeatherDisplay:10.37,2013-05-20 08:30:00,
2013-05-20 04:35:00,58.8,58.0,30.01,NW,315,0.0,0.0,97,0.00,BKN,,0.00,WeatherDisplay:10.37,2013-05-20 08:35:00,
2013-05-20 04:40:00,58.8,58.0,30.01,NW,315,0.0,0.0,97,0.00,BKN,,0.00,WeatherDisplay:10.37,2013-05-20 08:40:00,
2013-05-20 04:45:00,58.6,57.8,30.01,NW,315,0.0,0.0,97,0.00,BKN,,0.00,WeatherDisplay:10.37,2013-05-20 08:45:00,
2013-05-20 04:50:00,58.6,58.0,30.02,NW,315,0.0,0.0,98,0.00,BKN,,0.00,WeatherDisplay:10.37,2013-05-20 08:50:00,
2013-05-20 04:55:00,58.6,58.0,30.02,NW,315,0.0,0.0,98,0.00,BKN,,0.00,WeatherDisplay:10.37,2013-05-20 08:55:00,
2013-05-20 05:00:00,58.6,58.0,30.02,NW,315,0.0,0.0,98,0.00,BKN,,0.00,WeatherDisplay:10.37,2013-05-20 09:00:00,
2013-05-20 05:05:00,58.6,58.0,30.02,NW,315,0.0,0.0,98,0.00,BKN,,0.00,WeatherDisplay:10.37,2013-05-20 09:05:00,
2013-05-20 05:10:00,58.6,58.3,30.02,NW,315,0.0,0.0,99,0.00,BKN,,0.00,WeatherDisplay:10.37,2013-05-20 09:10:00,
2013-05-20 05:15:00,58.6,58.3,30.03,NW,315,0.0,0.0,99,0.00,BKN,,0.00,WeatherDisplay:10.37,2013-05-20 09:15:00,
2013-05-20 05:20:00,58.8,58.5,30.03,NW,315,0.0,0.0,99,0.00,BKN,,0.00,WeatherDisplay:10.37,2013-05-20 09:20:00,
2013-05-20 05:25:00,58.8,58.5,30.03,NW,315,0.0,0.0,99,0.00,BKN,,0.00,WeatherDisplay:10.37,2013-05-20 09:25:00,
2013-05-20 05:30:00,59.0,58.7,30.03,NW,315,0.0,0.0,99,0.00,BKN,,0.00,WeatherDisplay:10.37,2013-05-20 09:30:00,
2013-05-20 05:35:00,59.0,58.7,30.03,NW,315,0.0,0.0,99,0.00,BKN,,0.00,WeatherDisplay:10.37,2013-05-20 09:35:00,
2013-05-20 05:40:00,59.0,58.7,30.03,NW,315,0.0,0.0,99,0.00,BKN,,0.00,WeatherDisplay:10.37,2013-05-20 09:40:00,
2013-05-20 05:45:00,59.0,58.7,30.03,NW,315,0.0,0.0,99,0.00,BKN,,0.00,WeatherDisplay:10.37,2013-05-20 09:45:00,
2013-05-20 05:50:00,59.0,58.7,30.03,NW,315,0.0,0.0,99,0.00,BKN,,0.00,WeatherDisplay:10.37,2013-05-20 09:50:00,
2013-05-20 05:55:00,59.2,58.9,30.04,NW,315,0.0,0.0,99,0.00,BKN,,0.00,WeatherDisplay:10.37,2013-05-20 09:55:00,
2013-05-20 06:00:00,59.2,58.9,30.04,NW,315,0.0,0.0,99,0.00,BKN,,0.00,WeatherDisplay:10.37,2013-05-20 10:00:00,
2013-05-20 06:05:00,59.2,58.9,30.04,NW,315,0.0,0.0,99,0.00,BKN,,0.00,WeatherDisplay:10.37,2013-05-20 10:05:00,
2013-05-20 06:10:00,59.2,59.2,30.04,NW,315,0.0,0.0,100,0.00,BKN,,0.00,WeatherDisplay:10.37,2013-05-20 10:10:00,
2013-05-20 06:15:00,59.2,59.2,30.04,NW,315,0.0,0.0,100,0.00,BKN,,0.00,WeatherDisplay:10.37,2013-05-20 10:15:00,
2013-05-20 06:20:00,59.5,59.5,30.04,NW,315,0.0,0.0,100,0.00,BKN,,0.00,WeatherDisplay:10.37,2013-05-20 10:20:00,
2013-05-20 06:25:00,59.5,59.5,30.04,NW,315,0.0,0.0,100,0.00,BKN,,0.00,WeatherDisplay:10.37,2013-05-20 10:25:00,
2013-05-20 06:30:00,59.7,59.7,30.04,NW,315,0.0,0.0,100,0.00,BKN,,0.00,WeatherDisplay:10.37,2013-05-20 10:30:00,
2013-05-20 06:35:00,59.7,59.7,30.04,NW,315,0.0,0.0,100,0.00,BKN,,0.00,WeatherDisplay:10.37,2013-05-20 10:35:00,
2013-05-20 06:40:00,59.9,59.9,30.04,NW,315,0.0,0.0,100,0.00,BKN,,0.00,WeatherDisplay:10.37,2013-05-20 10:40:00,
2013-05-20 06:45:00,75.1,63.4,29.91,SSE,158,5.0,7.0,67,0.00,BKN,BKN,0.00,WeatherDisplay:10.37,2013-05-20 10:45:00,
2013-05-20 06:50:00,74.1,62.9,29.91,SSE,158,5.0,7.0,68,0.00,BKN,BKN,0.00,WeatherDisplay:10.37,2013-05-20 10:50:00,
2013-05-20 06:55:00,74.1,62.9,29.91,SSE,158,5.0,7.0,68,0.00,BKN,BKN,0.00,WeatherDisplay:10.37,2013-05-20 10:55:00,
2013-05-20 07:00:00,75.1,64.2,29.91,SSE,165,5.0,7.0,69,0.00,BKN,BKN,0.00,WeatherDisplay:10.37,2013-05-20 11:00:00,
2013-05-20 07:05:00,75.1,64.2,29.91,SW,217,5.0,5.0,69,0.00,BKN,BKN,0.00,WeatherDisplay:10.37,2013-05-20 11:05:00,
2013-05-20 07:10:00,75.1,64.2,29.91,WSW,248,5.0,5.0,69,0.00,BKN,BKN,0.00,WeatherDisplay:10.37,2013-05-20 11:10:00,
2013-05-20 07:15:00,75.1,64.2,29.91,WSW,240,3.0,5.0,69,0.00,BKN,BKN,0.00,WeatherDisplay:10.37,2013-05-20 11:15:00,
2013-05-20 07:20:00,75.1,64.2,29.91,SW,228,3.0,5.0,69,0.00,BKN,BKN,0.00,WeatherDisplay:10.37,2013-05-20 11:20:00,
2013-05-20 07:25:00,76.1,64.3,29.91,SSW,209,6.0,6.0,67,0.00,BKN,BKN,0.00,WeatherDisplay:10.37,2013-05-20 11:25:00,
2013-05-20 07:30:00,76.1,64.3,29.91,South,172,6.0,6.0,67,0.00,BKN,BKN,0.00,WeatherDisplay:10.37,2013-05-20 11:30:00,
2013-05-20 07:35:00,76.1,64.3,29.91,SSE,158,6.0,6.0,67,0.00,BKN,BKN,0.00,WeatherDisplay:10.37,2013-05-20 11:35:00,
2013-05-20 07:40:00,77.1,65.3,29.91,SSE,168,5.0,5.0,67,0.00,BKN,BKN,0.00,WeatherDisplay:10.37,2013-05-20 11:40:00,
2013-05-20 07:45:00,77.1,65.3,29.91,South,180,5.0,5.0,67,0.00,BKN,BKN,0.00,WeatherDisplay:10.37,2013-05-20 11:45:00,
2013-05-20 07:50:00,76.1,64.3,29.91,SSW,205,5.0,5.0,67,0.00,BKN,BKN,0.00,WeatherDisplay:10.37,2013-05-20 11:50:00,
2013-05-20 07:55:00,76.1,64.3,29.91,WSW,257,5.0,5.0,67,0.00,BKN,BKN,0.00,WeatherDisplay:10.37,2013-05-20 11:55:00,
2013-05-20 08:00:00,78.1,65.4,29.91,West,267,3.0,7.0,65,0.00,BKN,BKN,0.00,WeatherDisplay:10.37,2013-05-20 12:00:00,
2013-05-20 08:05:00,78.1,65.4,29.91,WSW,245,3.0,7.0,65,0.00,BKN,BKN,0.00,WeatherDisplay:10.37,2013-05-20 12:05:00,
2013-05-20 08:10:00,78.1,65.4,29.91,SW,225,3.0,7.0,65,0.00,BKN,BKN,0.00,WeatherDisplay:10.37,2013-05-20 12:10:00,
2013-05-20 08:15:00,77.1,64.4,29.88,SSW,204,6.0,7.0,65,0.00,BKN,BKN,0.00,WeatherDisplay:10.37,2013-05-20 12:15:00,
2013-05-20 08:20:00,77.1,64.4,29.88,South,183,6.0,6.0,65,0.00,BKN,BKN,0.00,WeatherDisplay:10.37,2013-05-20 12:20:00,
2013-05-20 08:25:00,78.1,65.4,29.88,South,184,5.0,7.0,65,0.00,BKN,BKN,0.00,WeatherDisplay:10.37,2013-05-20 12:25:00,
2013-05-20 08:30:00,78.1,65.4,29.88,SSW,194,5.0,7.0,65,0.00,BKN,BKN,0.00,WeatherDisplay:10.37,2013-05-20 12:30:00,
2013-05-20 08:35:00,78.1,65.4,29.88,SSW,202,5.0,7.0,65,0.00,BKN,BKN,0.00,WeatherDisplay:10.37,2013-05-20 12:35:00,
2013-05-20 08:40:00,79.1,65.9,29.88,SSW,202,7.0,7.0,64,0.00,BKN,BKN,0.00,WeatherDisplay:10.37,2013-05-20 12:40:00,
2013-05-20 08:45:00,79.1,65.9,29.88,SSW,202,7.0,7.0,64,0.00,BKN,BKN,0.00,WeatherDisplay:10.37,2013-05-20 12:45:00,
2013-05-20 08:50:00,80.1,65.4,29.88,SSW,202,3.0,7.0,61,0.00,BKN,BKN,0.00,WeatherDisplay:10.37,2013-05-20 12:50:00,
2013-05-20 08:55:00,80.1,65.4,29.88,SSW,202,3.0,7.0,61,0.00,BKN,BKN,0.00,WeatherDisplay:10.37,2013-05-20 12:55:00,
2013-05-20 09:00:00,80.1,65.0,29.88,SSW,209,5.0,7.0,60,0.00,BKN,BKN,0.00,WeatherDisplay:10.37,2013-05-20 13:00:00,
2013-05-20 09:05:00,80.1,65.0,29.88,WSW,248,5.0,5.0,60,0.00,BKN,BKN,0.00,WeatherDisplay:10.37,2013-05-20 13:05:00,
2013-05-20 09:10:00,80.1,65.0,29.88,West,270,5.0,5.0,60,0.00,BKN,BKN,0.00,WeatherDisplay:10.37,2013-05-20 13:10:00,
2013-05-20 09:15:00,80.1,65.4,29.88,West,270,6.0,8.0,61,0.00,BKN,BKN,0.00,WeatherDisplay:10.37,2013-05-20 13:15:00,
2013-05-20 09:20:00,80.1,65.4,29.88,West,270,6.0,8.0,61,0.00,BKN,BKN,0.00,WeatherDisplay:10.37,2013-05-20 13:20:00,
2013-05-20 09:25:00,80.1,64.5,29.88,West,279,5.0,8.0,59,0.00,BKN,BKN,0.00,WeatherDisplay:10.37,2013-05-20 13:25:00,
2013-05-20 09:30:00,80.1,64.5,29.88,NW,314,5.0,5.0,59,0.00,BKN,BKN,0.00,WeatherDisplay:10.37,2013-05-20 13:30:00,
2013-05-20 09:35:00,80.1,64.5,29.88,NNW,338,5.0,5.0,59,0.00,BKN,BKN,0.00,WeatherDisplay:10.37,2013-05-20 13:35:00,
2013-05-20 09:40:00,82.1,66.4,29.88,NW,325,6.0,6.0,59,0.00,BKN,BKN,0.00,WeatherDisplay:10.37,2013-05-20 13:40:00,
2013-05-20 09:45:00,82.1,66.4,29.88,NW,315,6.0,6.0,59,0.00,BKN,BKN,0.00,WeatherDisplay:10.37,2013-05-20 13:45:00,
2013-05-20 09:50:00,81.1,64.9,29.88,West,280,8.0,8.0,58,0.00,BKN,BKN,0.00,WeatherDisplay:10.37,2013-05-20 13:50:00,
2013-05-20 09:55:00,81.1,64.9,29.88,SSW,212,8.0,8.0,58,0.00,BKN,BKN,0.00,WeatherDisplay:10.37,2013-05-20 13:55:00,
2013-05-20 10:00:00,81.1,63.9,29.88,SSW,201,3.0,5.0,56,0.00,BKN,BKN,0.00,WeatherDisplay:10.37,2013-05-20 14:00:00,
2013-05-20 10:05:00,81.1,63.9,29.88,SSW,192,3.0,5.0,56,0.00,BKN,BKN,0.00,WeatherDisplay:10.37,2013-05-20 14:05:00,
2013-05-20 10:10:00,81.1,63.9,29.88,South,180,3.0,5.0,56,0.00,BKN,BKN,0.00,WeatherDisplay:10.37,2013-05-20 14:10:00,
2013-05-20 10:15:00,82.1,63.8,29.88,SW,217,3.0,5.0,54,0.00,BKN,BKN,0.00,WeatherDisplay:10.37,2013-05-20 14:15:00,
2013-05-20 10:20:00,82.1,63.8,29.88,WNW,285,3.0,5.0,54,0.00,BKN,BKN,0.00,WeatherDisplay:10.37,2013-05-20 14:20:00,
2013-05-20 10:25:00,82.1,63.8,29.88,West,277,5.0,5.0,54,0.00,BKN,BKN,0.00,WeatherDisplay:10.37,2013-05-20 14:25:00,
2013-05-20 10:30:00,82.1,63.8,29.88,WSW,240,5.0,5.0,54,0.00,BKN,BKN,0.00,WeatherDisplay:10.37,2013-05-20 14:30:00,
2013-05-20 10:35:00,82.1,63.8,29.88,SW,225,5.0,5.0,54,0.00,BKN,BKN,0.00,WeatherDisplay:10.37,2013-05-20 14:35:00,
2013-05-20 10:40:00,83.1,63.7,29.88,SSW,201,6.0,10.0,52,0.00,BKN,BKN,0.00,WeatherDisplay:10.37,2013-05-20 14:40:00,
2013-05-20 10:45:00,83.1,63.7,29.88,South,180,6.0,10.0,52,0.00,BKN,BKN,0.00,WeatherDisplay:10.37,2013-05-20 14:45:00,
2013-05-20 10:50:00,83.1,63.1,29.88,SSE,164,3.0,10.0,51,0.00,BKN,BKN,0.00,WeatherDisplay:10.37,2013-05-20 14:50:00,
2013-05-20 10:55:00,83.1,63.1,29.88,ESE,110,3.0,5.0,51,0.00,BKN,BKN,0.00,WeatherDisplay:10.37,2013-05-20 14:55:00,
2013-05-20 11:00:00,81.1,62.9,29.85,East,90,5.0,5.0,54,0.00,BKN,BKN,0.00,WeatherDisplay:10.37,2013-05-20 15:00:00,
2013-05-20 11:05:00,81.1,62.9,29.85,West,270,5.0,5.0,54,0.00,BKN,BKN,0.00,WeatherDisplay:10.37,2013-05-20 15:05:00,
2013-05-20 11:10:00,81.1,62.9,29.85,West,270,5.0,5.0,54,0.00,BKN,BKN,0.00,WeatherDisplay:10.37,2013-05-20 15:10:00,
2013-05-20 15:13:00,82.6,65.3,29.85,South,180,3.9,9.9,56,0.00,BKN,,0.00,WeatherDisplay:10.37,2013-05-20 19:13:00,
2013-05-20 15:18:00,84.0,66.6,29.99,NW,315,4.6,7.8,56,0.00,BKN,,0.00,WeatherDisplay:10.37,2013-05-20 19:18:00,
2013-05-20 15:23:00,84.2,65.2,29.99,NNW,338,4.3,9.2,53,0.00,BKN,,0.00,WeatherDisplay:10.37,2013-05-20 19:23:00,
2013-05-20 15:28:00,84.7,65.7,29.99,SW,225,3.6,8.1,53,0.00,BKN,,0.00,WeatherDisplay:10.37,2013-05-20 19:28:00,
2013-05-20 15:33:00,84.7,67.3,29.99,SSE,158,5.8,8.1,56,0.00,BKN,,0.00,WeatherDisplay:10.37,2013-05-20 19:33:00,
2013-05-20 15:38:00,84.6,66.7,29.99,South,180,5.7,8.1,55,0.00,BKN,,0.00,WeatherDisplay:10.37,2013-05-20 19:38:00,
2013-05-20 15:43:00,84.6,66.1,29.99,West,270,7.3,10.4,54,0.00,BKN,,0.00,WeatherDisplay:10.37,2013-05-20 19:43:00,
2013-05-20 15:48:00,84.0,66.1,29.99,WNW,292,4.7,6.9,55,0.00,BKN,,0.00,WeatherDisplay:10.37,2013-05-20 19:48:00,
2013-05-20 15:53:00,85.5,65.9,29.98,SW,225,3.8,8.1,52,0.00,BKN,,0.00,WeatherDisplay:10.37,2013-05-20 19:53:00,
2013-05-20 15:58:00,84.7,65.1,29.98,North,360,4.4,6.9,52,0.00,BKN,,0.00,WeatherDisplay:10.37,2013-05-20 19:58:00,
2013-05-20 16:03:00,85.1,66.0,29.97,South,180,3.6,5.8,53,0.00,SCT,,0.00,WeatherDisplay:10.37,2013-05-20 20:03:00,
2013-05-20 16:08:00,85.3,66.2,29.97,SW,225,4.5,5.8,53,0.00,SCT,,0.00,WeatherDisplay:10.37,2013-05-20 20:08:00,
2013-05-20 16:13:00,84.2,65.8,29.97,WSW,248,6.4,9.2,54,0.00,SCT,,0.00,WeatherDisplay:10.37,2013-05-20 20:13:00,
2013-05-20 16:18:00,85.6,65.4,29.97,ESE,112,3.3,5.8,51,0.00,SCT,,0.00,WeatherDisplay:10.37,2013-05-20 20:18:00,
2013-05-20 16:23:00,84.0,66.1,29.97,West,270,2.5,2.7,55,0.00,SCT,,0.00,WeatherDisplay:10.37,2013-05-20 20:23:00,
2013-05-20 16:28:00,85.1,65.5,29.95,North,360,5.2,7.8,52,0.00,SCT,,0.00,WeatherDisplay:10.37,2013-05-20 20:28:00,
2013-05-20 16:33:00,84.4,65.9,29.95,NNW,338,5.0,7.0,54,0.00,SCT,,0.00,WeatherDisplay:10.37,2013-05-20 20:33:00,
2013-05-20 16:38:00,84.7,65.7,29.95,WSW,248,5.1,6.1,53,0.00,SCT,,0.00,WeatherDisplay:10.37,2013-05-20 20:38:00,
2013-05-20 16:43:00,85.1,66.6,29.95,WSW,248,4.0,6.9,54,0.00,SCT,,0.00,WeatherDisplay:10.37,2013-05-20 20:43:00,
2013-05-20 16:48:00,85.3,67.3,29.95,West,270,3.9,5.8,55,0.00,SCT,,0.00,WeatherDisplay:10.37,2013-05-20 20:48:00,
2013-05-20 16:53:00,88.0,67.6,29.95,SW,225,2.5,5.8,51,0.00,SCT,,0.00,WeatherDisplay:10.37,2013-05-20 20:53:00,
2013-05-20 16:58:00,90.5,66.9,29.95,WNW,292,4.8,6.1,46,0.00,SCT,,0.00,WeatherDisplay:10.37,2013-05-20 20:58:00,
2013-05-20 17:03:00,90.5,66.9,29.95,WSW,248,6.9,9.2,46,0.00,FEW,,0.00,WeatherDisplay:10.37,2013-05-20 21:03:00,
2013-05-20 17:08:00,90.7,67.1,29.95,West,270,5.3,8.1,46,0.00,FEW,,0.00,WeatherDisplay:10.37,2013-05-20 21:08:00,
2013-05-20 17:13:00,89.4,66.5,29.94,WSW,248,5.7,6.1,47,0.00,FEW,,0.00,WeatherDisplay:10.37,2013-05-20 21:13:00,
2013-05-20 17:18:00,90.3,67.3,29.94,WSW,248,2.0,7.0,47,0.00,FEW,,0.00,WeatherDisplay:10.37,2013-05-20 21:18:00,
2013-05-20 17:23:00,93.0,67.2,29.94,WSW,248,3.7,5.8,43,0.00,FEW,,0.00,WeatherDisplay:10.37,2013-05-20 21:23:00,
2013-05-20 17:28:00,93.9,66.6,29.94,WNW,292,5.6,6.1,41,0.00,FEW,,0.00,WeatherDisplay:10.37,2013-05-20 21:28:00,
2013-05-20 17:33:00,92.8,67.7,29.94,South,180,3.6,5.8,44,0.00,FEW,,0.00,WeatherDisplay:10.37,2013-05-20 21:33:00,
2013-05-20 17:38:00,91.8,67.4,29.94,West,270,4.4,4.6,45,0.00,FEW,,0.00,WeatherDisplay:10.37,2013-05-20 21:38:00,
2013-05-20 17:43:00,88.0,65.2,29.94,NW,315,6.0,7.0,47,0.00,FEW,,0.00,WeatherDisplay:10.37,2013-05-20 21:43:00,
2013-05-20 17:48:00,87.1,65.6,29.94,West,270,3.4,5.8,49,0.00,FEW,,0.00,WeatherDisplay:10.37,2013-05-20 21:48:00,
2013-05-20 17:53:00,87.8,65.7,29.95,East,90,3.7,6.9,48,0.00,FEW,,0.00,WeatherDisplay:10.37,2013-05-20 21:53:00,
2013-05-20 17:58:00,87.4,66.5,29.95,WSW,248,6.4,7.0,50,0.00,FEW,,0.00,WeatherDisplay:10.37,2013-05-20 21:58:00,
2013-05-20 18:03:00,85.3,65.7,29.94,SSW,202,4.2,4.6,52,0.00,FEW,,0.00,WeatherDisplay:10.37,2013-05-20 22:03:00,
2013-05-20 18:08:00,85.6,66.5,29.94,SSE,158,3.6,5.8,53,0.00,FEW,,0.00,WeatherDisplay:10.37,2013-05-20 22:08:00,
2013-05-20 18:13:00,85.6,66.0,29.95,WSW,248,4.9,6.9,52,0.00,FEW,,0.00,WeatherDisplay:10.37,2013-05-20 22:13:00,
2013-05-20 18:18:00,85.3,65.7,29.95,West,270,0.4,4.6,52,0.00,FEW,,0.00,WeatherDisplay:10.37,2013-05-20 22:18:00,
2013-05-20 18:23:00,85.3,66.8,29.95,West,270,4.1,5.3,54,0.00,FEW,,0.00,WeatherDisplay:10.37,2013-05-20 22:23:00,
2013-05-20 18:28:00,84.9,66.4,29.94,SW,225,3.4,5.3,54,0.00,FEW,,0.00,WeatherDisplay:10.37,2013-05-20 22:28:00,
2013-05-20 18:33:00,84.4,66.5,29.94,WNW,292,3.7,8.1,55,0.00,FEW,,0.00,WeatherDisplay:10.37,2013-05-20 22:33:00,
2013-05-20 18:38:00,83.8,66.4,29.94,South,180,3.0,4.6,56,0.00,FEW,,0.00,WeatherDisplay:10.37,2013-05-20 22:38:00,
2013-05-20 18:43:00,83.8,66.9,29.94,SSW,202,6.2,7.8,57,0.00,FEW,,0.00,WeatherDisplay:10.37,2013-05-20 22:43:00,
2013-05-20 18:48:00,83.7,66.3,29.94,SSW,202,2.3,3.5,56,0.00,FEW,,0.00,WeatherDisplay:10.37,2013-05-20 22:48:00,
2013-05-20 18:53:00,83.7,66.8,29.93,SW,225,4.1,4.4,57,0.00,FEW,,0.00,WeatherDisplay:10.37,2013-05-20 22:53:00,
2013-05-20 18:58:00,83.1,66.3,29.93,WSW,248,4.1,5.8,57,0.00,FEW,,0.00,WeatherDisplay:10.37,2013-05-20 22:58:00,
2013-05-20 19:03:00,82.9,66.1,29.92,South,180,3.3,4.6,57,0.00,FEW,,0.00,WeatherDisplay:10.37,2013-05-20 23:03:00,
2013-05-20 19:08:00,82.8,66.5,29.92,SSW,202,2.3,5.8,58,0.00,FEW,,0.00,WeatherDisplay:10.37,2013-05-20 23:08:00,
2013-05-20 19:13:00,82.9,66.1,29.93,SSE,158,3.5,5.3,57,0.00,FEW,,0.00,WeatherDisplay:10.37,2013-05-20 23:13:00,
2013-05-20 19:18:00,82.6,65.8,29.93,West,270,3.3,9.2,57,0.00,FEW,,0.00,WeatherDisplay:10.37,2013-05-20 23:18:00,
2013-05-20 19:23:00,82.4,66.1,29.93,West,270,3.0,4.6,58,0.00,FEW,,0.00,WeatherDisplay:10.37,2013-05-20 23:23:00,
2013-05-20 19:28:00,82.8,66.5,29.93,West,270,0.0,0.0,58,0.00,FEW,,0.00,WeatherDisplay:10.37,2013-05-20 23:28:00,
2013-05-20 19:33:00,82.8,66.5,29.93,South,180,2.0,4.6,58,0.00,FEW,,0.00,WeatherDisplay:10.37,2013-05-20 23:33:00,
2013-05-20 19:38:00,82.2,66.4,29.94,South,180,1.2,2.3,59,0.00,FEW,,0.00,WeatherDisplay:10.37,2013-05-20 23:38:00,
2013-05-20 19:43:00,81.7,66.5,29.94,SSW,202,0.0,0.0,60,0.00,FEW,,0.00,WeatherDisplay:10.37,2013-05-20 23:43:00,
2013-05-20 19:48:00,81.7,66.9,29.94,SSW,202,0.0,0.0,61,0.00,FEW,,0.00,WeatherDisplay:10.37,2013-05-20 23:48:00,
2013-05-20 19:53:00,81.1,66.8,29.94,SSW,202,0.0,0.0,62,0.00,FEW,,0.00,WeatherDisplay:10.37,2013-05-20 23:53:00,
2013-05-20 19:58:00,80.4,67.1,29.94,SSW,202,0.0,0.0,64,0.00,FEW,,0.00,WeatherDisplay:10.37,2013-05-20 23:58:00,
2013-05-20 20:03:00,80.1,66.8,29.93,SSW,202,0.0,0.0,64,0.00,FEW,,0.00,WeatherDisplay:10.37,2013-05-21 00:03:00,
2013-05-20 20:08:00,79.2,66.9,29.93,SSW,202,0.0,0.0,66,0.00,FEW,,0.00,WeatherDisplay:10.37,2013-05-21 00:08:00,
2013-05-20 20:13:00,78.6,66.7,29.93,SSW,202,0.0,0.0,67,0.00,FEW,,0.00,WeatherDisplay:10.37,2013-05-21 00:13:00,
2013-05-20 20:18:00,77.4,66.4,29.93,SSW,202,0.0,0.0,69,0.00,FEW,,0.00,WeatherDisplay:10.37,2013-05-21 00:18:00,
2013-05-20 20:23:00,77.0,66.5,29.93,SSW,202,0.0,0.0,70,0.00,FEW,,0.00,WeatherDisplay:10.37,2013-05-21 00:23:00,
2013-05-20 20:28:00,76.5,66.8,29.94,SSW,202,0.0,0.0,72,0.00,FEW,,0.00,WeatherDisplay:10.37,2013-05-21 00:28:00,
2013-05-20 20:33:00,75.6,66.3,29.94,SSW,202,0.0,0.0,73,0.00,FEW,,0.00,WeatherDisplay:10.37,2013-05-21 00:33:00,
2013-05-20 20:38:00,75.0,66.5,29.94,SSW,202,0.0,0.0,75,0.00,FEW,,0.00,WeatherDisplay:10.37,2013-05-21 00:38:00,
2013-05-20 20:43:00,74.3,66.2,29.94,SSW,202,0.0,0.0,76,0.00,FEW,,0.00,WeatherDisplay:10.37,2013-05-21 00:43:00,
2013-05-20 20:48:00,73.8,65.8,29.94,SSW,202,0.0,0.0,76,0.00,FEW,,0.00,WeatherDisplay:10.37,2013-05-21 00:48:00,
2013-05-20 20:53:00,73.0,65.7,29.94,SSW,202,0.0,0.0,78,0.00,FEW,,0.00,WeatherDisplay:10.37,2013-05-21 00:53:00,
2013-05-20 20:58:00,72.9,65.6,29.94,SSW,202,0.0,0.0,78,0.00,FEW,,0.00,WeatherDisplay:10.37,2013-05-21 00:58:00,
2013-05-20 21:03:00,72.0,65.5,29.94,SSW,202,0.0,0.0,80,0.00,SKC,,0.00,WeatherDisplay:10.37,2013-05-21 01:03:00,
2013-05-20 21:08:00,71.6,65.1,29.94,SSW,202,0.0,0.0,80,0.00,SKC,,0.00,WeatherDisplay:10.37,2013-05-21 01:08:00,
2013-05-20 21:13:00,71.4,64.9,29.94,SSW,202,0.0,0.0,80,0.00,SKC,,0.00,WeatherDisplay:10.37,2013-05-21 01:13:00,
2013-05-20 21:18:00,71.4,64.9,29.94,SSW,202,0.0,0.0,80,0.00,SKC,,0.00,WeatherDisplay:10.37,2013-05-21 01:18:00,
2013-05-20 21:23:00,71.1,65.0,29.94,SSW,202,0.0,0.0,81,0.00,SKC,,0.00,WeatherDisplay:10.37,2013-05-21 01:23:00,
2013-05-20 21:28:00,70.5,64.7,29.94,SSW,202,0.0,0.0,82,0.00,SKC,,0.00,WeatherDisplay:10.37,2013-05-21 01:28:00,
2013-05-20 21:33:00,70.3,64.9,29.94,SSW,202,0.0,0.0,83,0.00,SKC,,0.00,WeatherDisplay:10.37,2013-05-21 01:33:00,
2013-05-20 21:38:00,69.6,64.9,29.95,SSW,202,0.0,0.0,85,0.00,SKC,,0.00,WeatherDisplay:10.37,2013-05-21 01:38:00,
2013-05-20 21:43:00,69.4,64.7,29.95,SSW,202,0.0,0.0,85,0.00,SKC,,0.00,WeatherDisplay:10.37,2013-05-21 01:43:00,
2013-05-20 21:48:00,69.3,64.9,29.95,SSW,202,0.0,0.0,86,0.00,SKC,,0.00,WeatherDisplay:10.37,2013-05-21 01:48:00,
2013-05-20 21:54:00,68.9,64.9,29.95,SSW,202,0.0,0.0,87,0.00,SKC,,0.00,WeatherDisplay:10.37,2013-05-21 01:54:00,
2013-05-20 21:59:00,68.7,64.7,29.95,SSW,202,0.0,0.0,87,0.00,SKC,,0.00,WeatherDisplay:10.37,2013-05-21 01:59:00,
2013-05-20 22:04:00,68.7,64.7,29.96,SSW,202,0.0,0.0,87,0.00,SKC,,0.00,WeatherDisplay:10.37,2013-05-21 02:04:00,
2013-05-20 22:09:00,68.4,64.7,29.96,SSW,202,0.0,0.0,88,0.00,SKC,,0.00,WeatherDisplay:10.37,2013-05-21 02:09:00,
2013-05-20 22:14:00,68.4,64.4,29.96,SSW,202,0.0,0.0,87,0.00,SKC,,0.00,WeatherDisplay:10.37,2013-05-21 02:14:00,
2013-05-20 22:19:00,68.2,64.5,29.97,SSW,202,0.0,0.0,88,0.00,SKC,,0.00,WeatherDisplay:10.37,2013-05-21 02:19:00,
2013-05-20 22:24:00,68.2,64.5,29.97,SSW,202,0.0,0.0,88,0.00,SKC,,0.00,WeatherDisplay:10.37,2013-05-21 02:24:00,
2013-05-20 22:29:00,68.2,64.5,29.98,SSW,202,0.0,0.0,88,0.00,SKC,,0.00,WeatherDisplay:10.37,2013-05-21 02:29:00,
2013-05-20 22:34:00,68.0,64.6,29.98,SSW,202,0.0,0.0,89,0.00,SKC,,0.00,WeatherDisplay:10.37,2013-05-21 02:34:00,
2013-05-20 22:39:00,67.5,64.8,29.97,SSW,202,0.0,0.0,91,0.00,SKC,,0.00,WeatherDisplay:10.37,2013-05-21 02:39:00,
2013-05-20 22:44:00,67.5,64.8,29.97,SSW,202,0.0,0.0,91,0.00,SKC,,0.00,WeatherDisplay:10.37,2013-05-21 02:44:00,
2013-05-20 22:49:00,67.5,64.5,29.97,SSW,202,0.0,0.0,90,0.00,SKC,,0.00,WeatherDisplay:10.37,2013-05-21 02:49:00,
2013-05-20 22:54:00,66.9,64.5,29.97,SSW,202,0.0,0.0,92,0.00,SKC,,0.00,WeatherDisplay:10.37,2013-05-21 02:54:00,
2013-05-20 22:59:00,66.7,64.6,29.97,SSW,202,0.0,0.0,93,0.00,SKC,,0.00,WeatherDisplay:10.37,2013-05-21 02:59:00,
2013-05-20 23:04:00,66.7,64.3,29.97,SSW,202,0.0,0.0,92,0.00,SKC,,0.00,WeatherDisplay:10.37,2013-05-21 03:04:00,
2013-05-20 23:09:00,66.4,64.6,29.97,SSW,202,0.0,0.0,94,0.00,SKC,,0.00,WeatherDisplay:10.37,2013-05-21 03:09:00,
2013-05-20 23:14:00,66.2,64.4,29.97,SSW,202,0.0,0.0,94,0.00,SKC,,0.00,WeatherDisplay:10.37,2013-05-21 03:14:00,
2013-05-20 23:19:00,66.2,64.4,29.97,SSW,202,0.0,0.0,94,0.00,SKC,,0.00,WeatherDisplay:10.37,2013-05-21 03:19:00,
2013-05-20 23:24:00,66.0,64.5,29.97,SSW,202,0.0,0.0,95,0.00,SKC,,0.00,WeatherDisplay:10.37,2013-05-21 03:24:00,
2013-05-20 23:29:00,65.8,64.3,29.97,SSW,202,0.0,0.0,95,0.00,SKC,,0.00,WeatherDisplay:10.37,2013-05-21 03:29:00,
2013-05-20 23:34:00,65.7,64.5,29.97,SSW,202,0.0,0.0,96,0.00,SKC,,0.00,WeatherDisplay:10.37,2013-05-21 03:34:00,
2013-05-20 23:39:00,65.5,64.3,29.98,SSW,202,0.0,0.0,96,0.00,SKC,,0.00,WeatherDisplay:10.37,2013-05-21 03:39:00,
2013-05-20 23:44:00,65.5,64.0,29.98,SSW,202,0.0,0.0,95,0.00,SKC,,0.00,WeatherDisplay:10.37,2013-05-21 03:44:00,
2013-05-20 23:49:00,65.5,64.0,29.98,SSW,202,0.0,0.0,95,0.00,SKC,,0.00,WeatherDisplay:10.37,2013-05-21 03:49:00,
2013-05-20 23:54:00,65.5,63.7,29.97,SSW,202,0.0,0.0,94,0.00,SKC,,0.00,WeatherDisplay:10.37,2013-05-21 03:54:00,
2013-05-20 23:59:00,65.5,63.7,29.97,SSW,202,0.0,0.0,94,0.00,SKC,,0.00,WeatherDisplay:10.37,2013-05-21 03:59:00,